Starlink 30547

operational
NORAD ID: 58044 Int'l Des: 2023-156 Owner: SPXS Country: US Constellation: starlink
LEOCIRCULAR

Starlink 30547について

説明を読み込み中...

リアルタイム位置

3D地球を読み込み中...

次回通過

高度履歴

Altitude vs Time

uPlot chart will show altitude changes over time

軌道要素

1 58044U 23156S 26035.06448445 .00000043 00000-0 13571-4 0 9997
2 58044 53.1616 324.3954 0001369 72.4723 287.6428 15.30186119129889
Epoch: Feb 4, 2026 • Age: 8 hours

現在のステータス

高度 479.4 km
速度 7.63 km/s
衛星直下点 -15.09°S, 37.21°E
打ち上げ日 Oct 9, 2023
運用期間 2.3 years
タイプ internet

技術仕様

分類 Payload
質量 730.00 kg
乾燥質量 700.00 kg
総質量 730.00 kg
長さ 0.30 m
直径 4.10 m
スパン 29.00 m
形状 Box + pan
製造者 SPXS
バスタイプ Starlink V2M
フェーズステータス In Orbit
所有者/国 SPXS/US

大規模コンステレーション

Loading constellations...